Starlink 4321

operational
NORAD ID: 53082 Int'l Des: 2022-077 Owner: SPXS Country: US Constellation: starlink
LEOCIRCULARRETROGRADESSO

About Starlink 4321

Description loading...

Live Position

Loading 3D Globe...

Upcoming Passes

Altitude History

Altitude vs Time

uPlot chart will show altitude changes over time

Two-Line Element Set

1 53082U 22077AR 25338.47432985 -.00000550 00000-0 -38296-4 0 9993
2 53082 97.6023 156.9906 0002827 201.1387 158.9721 15.01260466186632
Epoch: Dec 4, 2025 • Age: 18 hours

Current Status

Altitude 567.5 km
Velocity 7.58 km/s
Sub-Earth Point 18.10°N, 5.06°E
Launch Date Jul 11, 2022
Age 3.4 years
Type internet

Technical Details

Classification Payload
Mass 297.00 kg
Dry Mass 275.00 kg
Total Mass 297.00 kg
Length 0.20 m
Diameter 2.80 m
Span 9.00 m
Shape Box + pan
Manufacturer SPXS
Bus Type Starlink
Phase Status In Orbit
Owner/State SPXS/US

Large Constellations

Loading constellations...